Cross City, FL

12:59 PM EDT on May 21, 2018 (GMT -0400)
Cross City

Weather History for KCTY - November, 2012

Change the Weather History Date:

Thursday, November 22, 2012

  Actual Average Record
Temperature  
Mean Temperature 57 °F 61 °F  
Max Temperature 73 °F 74 °F 83 °F (2013)
Min Temperature 40 °F 48 °F 25 °F (2000)
Degree Days  
Heating Degree Days 8 6  
Month to date heating degree days 102 85  
Since 1 July heating degree days 140 117  
Cooling Degree Days 0 1  
Month to date cooling degree days 17 50  
Year to date cooling degree days 2797 2593  
Growing Degree Days 6 (Base 50)    
Moisture  
Dew Point 40 °F    
Average Humidity 67    
Maximum Humidity 96    
Minimum Humidity 25    
Precipitation  
Precipitation 0.00 in 0.10 in 0.91 in (2007)
Month to date precipitation 0.50 1.81  
Year to date precipitation 57.65 45.04  
Sea Level Pressure  
Sea Level Pressure 30.17 in    
Wind  
Wind Speed 3 mph (NNE)    
Max Wind Speed 16 mph    
Max Gust Speed 21 mph    
T = Trace of Precipitation, MM = Missing Value Source: NWS Daily Summary

Daily Weather History Graph

Daily Weather History Graph

Search for Another Location

Airport or City:

Astronomy

Nov. 22, 2012 Rise Set
Actual Time 7:02 AM EST 5:34 PM EST
Civil Twilight 6:37 AM EST 5:59 PM EST
Nautical Twilight 6:08 AM EST 6:28 PM EST
Astronomical Twilight 5:39 AM EST 6:57 PM EST
Moon 1:59 PM EST (11/22) 1:44 AM EST (11/22)
Length of Visible Light 11h 22m
Length of Day
10h 31m
Waxing Gibbous, 71% of the Moon is Illuminated
Nov 22
Waxing Gibbous
Nov 28
Full
Dec 6
Last Quarter
Dec 13
New
Dec 20
First Quarter

Hourly Weather History & Observations

Time (EST) Temp. Windchill Dew Point Humidity Pressure Visibility Wind Dir Wind Speed Gust Speed Precip Events Conditions
12:53 AM 45.0 °F - 43.0 °F 93% 30.13 in - Calm Calm - N/A   Unknown
1:53 AM 43.0 °F - 41.0 °F 93% 30.13 in - Calm Calm - N/A   Unknown
2:53 AM 43.0 °F - 41.0 °F 93% 30.13 in - Calm Calm - N/A   Unknown
3:53 AM 43.0 °F - 39.9 °F 89% 30.14 in - Calm Calm - N/A   Unknown
4:53 AM 43.0 °F 41.3 °F 41.0 °F 93% 30.14 in - NNE 3.5 mph - N/A   Unknown
5:53 AM 42.1 °F 40.2 °F 39.0 °F 89% 30.15 in - NE 3.5 mph - N/A   Unknown
6:53 AM 39.9 °F - 37.0 °F 89% 30.17 in - Calm Calm - N/A   Unknown
7:53 AM 45.0 °F - 42.1 °F 90% 30.19 in - Calm Calm - N/A   Unknown
8:53 AM 53.1 °F - 44.1 °F 71% 30.21 in - NE 4.6 mph - N/A   Unknown
9:53 AM 60.1 °F - 39.9 °F 47% 30.22 in - NNE 8.1 mph - N/A   Unknown
10:53 AM 64.9 °F - 39.0 °F 39% 30.21 in - NNE 9.2 mph - N/A   Unknown
11:53 AM 69.1 °F - 35.1 °F 29% 30.20 in - Variable 6.9 mph - N/A   Unknown
12:53 PM 71.1 °F - 33.1 °F 25% 30.17 in - NNE 8.1 mph - N/A   Unknown
1:53 PM 72.0 °F - 36.0 °F 27% 30.15 in - North 10.4 mph - N/A   Unknown
2:53 PM 72.0 °F - 37.0 °F 28% 30.14 in - North 9.2 mph 19.6 mph N/A   Unknown
3:53 PM 71.1 °F - 37.9 °F 30% 30.14 in - North 10.4 mph - N/A   Unknown
4:53 PM 69.1 °F - 39.9 °F 35% 30.15 in - NNE 6.9 mph - N/A   Unknown
5:53 PM 57.9 °F - 44.1 °F 60% 30.16 in - Calm Calm - N/A   Unknown
6:53 PM 52.0 °F - 44.1 °F 74% 30.18 in - Calm Calm - N/A   Unknown
7:53 PM 48.0 °F - 41.0 °F 77% 30.19 in - Calm Calm - N/A   Unknown
8:53 PM 46.0 °F - 41.0 °F 83% 30.21 in - Calm Calm - N/A   Unknown
9:53 PM 44.1 °F - 39.9 °F 85% 30.21 in - Calm Calm - N/A   Unknown
10:53 PM 42.1 °F - 37.9 °F 85% 30.21 in - Calm Calm - N/A   Unknown
11:53 PM 41.0 °F - 37.9 °F 89% 30.19 in - Calm Calm - N/A   Unknown